[[{"header":{"parameterUnit":"m.s-1","parameterCategory":1,"la1":30.2991,"la2":30.254,"lo1":-89.0895,"lo2":-89.0444,"dy":0.0017,"dx":0.0017,"nx":28,"ny":28,"refTime":"2025-08-30T21:00:00:Z","depth":0,"parameterNumber":2,"parameterNumberName":"U-component_of_WINDS"},"data":[0,0,0,0,0,0,0,0,0,0,0,0,0,0,0,0,0,0,0,0,0,0,0,0,0,0,0,0,0,0,0,0,0,0,0,0,0,0,0,0,0,0,0,0,0,0,0,0,0,0,0,0,0,0,0,0,0,0,-3.9342,-3.9344,0,-3.9443,-3.9444,-3.9446,-3.931,-3.9305,-3.93,-3.9295,-3.9404,-3.9411,-3.9418,0,0,0,0,0,0,0,0,0,0,0,0,0,-3.9035,-3.9042,-3.9342,-3.9344,-3.9345,-3.9443,-3.9445,-3.9446,-3.9311,-3.9305,-3.9299,-3.9293,-3.9401,-3.941,-3.9419,0,0,0,0,0,0,0,0,0,0,0,0,0,-3.9156,-3.9044,-3.9342,-3.9289,-3.9285,-3.9443,-3.9445,-3.9446,-3.9312,-3.9304,-3.9297,-3.929,-3.9398,-3.9409,-3.942,-3.9636,0,0,-3.9454,-3.9459,0,0,0,0,0,0,0,0,-3.9149,-3.9167,-3.9296,-3.9293,-3.9289,-3.9356,-3.9376,-3.951,-3.9314,-3.9302,-3.9295,-3.9287,-3.9394,-3.9405,-3.944,-3.9641,-3.9646,-3.9455,-3.9462,-3.9467,-3.947,0,0,0,0,0,0,0,-3.9141,-3.9162,-3.9382,-3.9298,-3.9294,-3.9261,-3.927,-3.9401,-3.9388,-3.9302,-3.9293,-3.9306,-3.9391,-3.943,-3.9442,-3.9647,-3.9455,-3.9465,-3.9472,-3.9476,-4.003,-4.0037,0,0,0,0,0,0,-3.9139,-3.9156,-3.9379,-3.9385,-3.9199,-3.9273,-3.9283,-3.9342,-3.9386,-3.9386,-3.9312,-3.93,-3.9414,-3.9429,-3.9445,-3.9701,-3.9467,-3.9477,-3.9484,-4.0022,-4.0031,-4.004,0,0,0,0,0,0,-3.9132,-3.916,-3.9375,-3.9268,-3.9293,-3.9286,-3.9354,-3.9348,-3.9387,-3.9394,-3.9391,-3.9355,-3.9409,-3.9429,-3.9589,-3.9703,-3.9482,-3.9492,-4.0012,-4.0025,-4.0036,-4.0215,0,0,0,0,0,0,-3.9124,-3.9158,-3.924,-3.9271,-3.9299,-3.9517,-3.9361,-3.9355,-3.9406,-3.939,-3.9433,-3.9433,-3.9405,-3.9573,-3.96,-3.9714,-3.9501,-4.0002,-4.0018,-4.0032,-4.0199,-4.0232,-4.026,0,0,0,0,0,-3.9114,-3.9288,-3.9245,-3.9272,-3.9401,-3.9524,-3.954,-3.9504,-3.9416,-3.9498,-3.9502,-3.9431,-3.9685,-3.9591,-3.962,-3.9739,-3.9995,-4.0013,-4.0031,-4.0185,-4.0225,-4.0259,0,0,0,0,0,0,-3.9272,-3.9291,-3.9244,-3.9432,-3.9477,-3.9501,-3.9604,-3.9547,-3.9619,-3.9602,-3.9554,-3.9565,-3.9736,-3.9753,-3.9647,-3.995,-3.9826,-3.9851,-3.9933,-3.9971,-4.0001,-3.9994,-3.951,0,0,0,0,0,-3.9329,-3.9426,-3.9437,-3.9603,-3.9627,-3.9612,-3.9664,-3.9631,-3.9677,-3.9696,-3.9712,-3.976,-3.985,-3.9911,-3.9995,-4.0199,-4.0207,-4.0296,-4.0326,-4.0351,-4.0374,-4.0484,-4.0523,-4.0099,-4.0099,-4.0099,0,0,-3.9447,-3.9469,-3.9534,-3.9635,-3.9666,-3.9769,-3.9629,-3.9744,-3.982,-3.9714,-3.9865,-3.9879,-3.9929,-4.0112,-4.0194,-4.0132,-4.0492,-4.0374,-4.0394,-4.0403,-4.0506,-4.0547,-4.0582,-4.0111,-4.0109,-4.0107,0,0,-3.9716,-3.9742,-3.9883,-3.9916,-3.9964,-3.9952,-3.9986,-4.0018,-4.0022,-4.0173,-4.0095,-4.0185,-4.0342,-4.0381,-4.0421,-4.0703,-4.0641,-4.0731,-4.0891,-4.0998,-4.1032,-4.1061,-4.1163,-4.12,-4.0753,-4.0754,-4.0754,0,-3.9859,-4.0009,-3.9963,-4.0083,-4.013,-4.0036,-4.0178,-4.0213,-4.0287,-4.0322,-4.0251,-4.0445,-4.0472,-4.0663,-4.0732,-4.0767,-4.0805,-4.0727,-4.103,-4.1059,-4.1086,-4.1183,-4.1221,-4.0764,-4.0763,-4.0762,-4.0761,0,-4.0182,-4.0287,-4.0395,-4.0467,-4.0525,-4.0657,-4.0631,-4.0696,-4.0658,-4.0654,-4.0808,-4.0837,-4.0925,-4.0967,-4.0932,-4.1154,-4.1114,-4.1037,-4.0912,-4.1138,-4.1228,-4.1265,-4.078,-4.0776,-4.0773,-4.077,0,0,-4.0557,-4.0599,-4.064,-4.067,-4.0715,-4.0797,-4.0923,-4.1007,-4.1064,-4.1117,-4.1223,-4.1357,-4.1286,-4.1332,-4.1299,-4.1394,-4.1616,-4.1305,-4.1306,-4.1363,-4.1863,-4.1922,-4.1965,-4.1573,-4.158,-4.1585,-4.1859,0,-4.0826,-4.1044,-4.1005,-4.1217,-4.1314,-4.1225,-4.1334,-4.1375,-4.1374,-4.1457,-4.1455,-4.1551,-4.145,-4.1477,-4.1566,-4.157,-4.1716,-4.1549,-4.1673,-4.1678,-4.1666,-4.2012,-4.2074,-4.2331,-4.1894,-4.19,-4.1904,0,-4.1171,-4.1235,-4.1456,-4.1485,-4.1524,-4.1624,-4.1697,-4.1777,-4.182,-4.1812,-4.1863,-4.1813,-4.1939,-4.181,-4.1984,-4.1872,-4.192,-4.1929,-4.1938,-4.195,-4.1807,-4.2035,-4.2412,-4.2452,-4.1958,-4.1954,-4.195,0,-4.1424,-4.1565,-4.1716,-4.1745,-4.1782,-4.1854,-4.1873,-4.1908,-4.1961,-4.2025,-4.2059,-4.2137,-4.2181,-4.2244,-4.2216,-4.2124,-4.2397,-4.2264,-4.2395,-4.2397,-4.2459,-4.2456,-4.2851,-4.2487,-4.2486,-4.2486,-4.2485,0,-4.1731,-4.187,-4.183,-4.1923,-4.2076,-4.203,-4.2183,-4.2191,-4.2224,-4.2317,-4.2244,-4.2334,-4.2291,-4.2378,-4.2357,-4.2505,-4.2525,-4.2524,-4.2517,-4.2532,-4.2533,-4.2565,-4.2547,-4.2496,-4.2494,-4.2492,-4.249,0,-4.2041,-4.2019,-4.2177,-4.2198,-4.2206,-4.2319,-4.2336,-4.2424,-4.2415,-4.2535,-4.256,-4.2549,-4.2647,-4.2625,-4.2733,-4.2719,-4.2906,-4.2876,-4.2891,-4.2885,-4.3018,-4.3006,-4.3449,-4.3505,-4.3103,-4.3107,-4.311,0,-4.2239,-4.2344,-4.2375,-4.2431,-4.2455,-4.2547,-4.26,-4.2557,-4.2615,-4.2671,-4.2753,-4.2843,-4.2915,-4.3076,-4.3078,-4.316,-4.3133,-4.3282,-4.3145,-4.3156,-4.3137,-4.3132,-4.3143,-4.3311,-4.3315,-4.3319,-4.3322,0,-4.2594,-4.2577,-4.2655,-4.2729,-4.2793,-4.285,-4.29,-4.2951,-4.2913,-4.2982,-4.308,-4.3135,-4.3244,-4.3336,-4.3411,-4.3431,-4.3372,-4.3365,-4.34,-4.3417,-4.3422,-4.3422,-4.2968,-4.3356,-4.3352,-4.335,-4.3348,-4.3347,-4.2855,-4.2944,-4.2979,-4.3068,-4.31,-4.3148,-4.3231,-4.3232,-4.3313,-4.3398,-4.3367,-4.3481,-4.352,-4.3615,-4.3644,-4.3732,-4.3676,-4.3727,-4.374,-4.3754,-4.3771,-4.3406,-4.3746,-4.3745,-4.3744,-4.3743,-4.3742,0,-4.3207,-4.3224,-4.3306,-4.3378,-4.3448,-4.3382,-4.3433,-4.3497,-4.3597,-4.3637,-4.3708,-4.3821,-4.3909,-4.3918,-4.4001,-4.407,-4.4045,-4.4094,-4.4089,-4.4095,-4.3815,-4.3777,-4.4113,-4.4113,-4.4113,-4.4113,-4.4112,-4.4112,-4.3399,-4.3545,-4.3533,-4.3695,-4.3711,-4.382,-4.3855,-4.39,-4.3932,-4.4061,-4.4133,-4.4137,-4.4165,-4.4249,-4.4327,-4.4327,-4.4362,-4.4423,-4.4413,-4.4152,-4.4115,-4.408,-4.4044,-4.443,-4.443,-4.4685,-4.4687,-4.4689]},{"header":{"parameterUnit":"m.s-1","parameterCategory":1,"la1":30.2991,"la2":30.254,"lo1":-89.0895,"lo2":-89.0444,"dy":0.0017,"dx":0.0017,"nx":28,"ny":28,"refTime":"2025-08-30T21:00:00:Z","depth":0,"parameterNumber":3,"parameterNumberName":"V-component_of_WINDS"},"data":[0,0,0,0,0,0,0,0,0,0,0,0,0,0,0,0,0,0,0,0,0,0,0,0,0,0,0,0,0,0,0,0,0,0,0,0,0,0,0,0,0,0,0,0,0,0,0,0,0,0,0,0,0,0,0,0,0,0,-2.9089,-2.9089,0,-2.9111,-2.9111,-2.9111,-2.9068,-2.9067,-2.9066,-2.9064,-2.9087,-2.9089,-2.9091,0,0,0,0,0,0,0,0,0,0,0,0,0,-2.9007,-2.9008,-2.9089,-2.9089,-2.9089,-2.9111,-2.9111,-2.9112,-2.9069,-2.9067,-2.9065,-2.9064,-2.9086,-2.9089,-2.9091,0,0,0,0,0,0,0,0,0,0,0,0,0,-2.9037,-2.9009,-2.9088,-2.907,-2.9069,-2.9111,-2.9111,-2.9112,-2.9069,-2.9067,-2.9065,-2.9063,-2.9086,-2.9088,-2.9091,-2.9152,0,0,-2.91,-2.9101,0,0,0,0,0,0,0,0,-2.9035,-2.904,-2.9073,-2.9072,-2.907,-2.9085,-2.9091,-2.9125,-2.907,-2.9069,-2.9064,-2.9062,-2.9088,-2.909,-2.9099,-2.9153,-2.9154,-2.91,-2.9102,-2.9103,-2.9104,0,0,0,0,0,0,0,-2.9033,-2.9039,-2.9097,-2.9073,-2.9072,-2.906,-2.9062,-2.9097,-2.909,-2.9069,-2.9066,-2.9069,-2.9087,-2.9097,-2.91,-2.9154,-2.91,-2.9103,-2.9105,-2.9106,-2.9256,-2.9258,0,0,0,0,0,0,-2.9034,-2.9037,-2.9097,-2.9098,-2.9047,-2.9064,-2.9066,-2.9082,-2.909,-2.9089,-2.9071,-2.9067,-2.9093,-2.9096,-2.91,-2.917,-2.9103,-2.9106,-2.9108,-2.9253,-2.9256,-2.9259,0,0,0,0,0,0,-2.9032,-2.9039,-2.9096,-2.9067,-2.9073,-2.9067,-2.9086,-2.9084,-2.9094,-2.9091,-2.909,-2.9082,-2.9091,-2.9096,-2.9139,-2.917,-2.9107,-2.911,-2.9251,-2.9254,-2.9257,-2.9311,0,0,0,0,0,0,-2.903,-2.9039,-2.9063,-2.9068,-2.9075,-2.9135,-2.9088,-2.9086,-2.9099,-2.9094,-2.9102,-2.9101,-2.909,-2.9135,-2.9142,-2.9173,-2.9112,-2.9248,-2.9252,-2.9256,-2.9306,-2.9315,-2.9324,0,0,0,0,0,-2.9027,-2.9077,-2.9064,-2.9071,-2.9104,-2.9137,-2.9141,-2.9127,-2.9102,-2.9125,-2.9123,-2.91,-2.9166,-2.9139,-2.9147,-2.918,-2.9246,-2.9251,-2.9256,-2.9302,-2.9314,-2.9323,0,0,0,0,0,0,-2.9076,-2.9078,-2.9063,-2.9116,-2.9127,-2.9129,-2.9158,-2.914,-2.9158,-2.9153,-2.9135,-2.9137,-2.9183,-2.9186,-2.9156,-2.9237,-2.9201,-2.9208,-2.9234,-2.9245,-2.9253,-2.9251,-2.9115,0,0,0,0,0,-2.9093,-2.912,-2.9119,-2.9167,-2.9172,-2.9164,-2.9178,-2.9167,-2.9177,-2.9181,-2.9182,-2.9192,-2.9214,-2.923,-2.9251,-2.9306,-2.9306,-2.9332,-2.9341,-2.9348,-2.9354,-2.9382,-2.9393,-2.9275,-2.9275,-2.9275,0,0,-2.9129,-2.9133,-2.9151,-2.9176,-2.9183,-2.921,-2.9168,-2.9199,-2.9219,-2.9185,-2.9225,-2.9226,-2.9236,-2.9285,-2.9307,-2.9289,-2.9386,-2.9355,-2.936,-2.9362,-2.9388,-2.9399,-2.9409,-2.9279,-2.9278,-2.9277,0,0,-2.9207,-2.9214,-2.9253,-2.926,-2.927,-2.9264,-2.9273,-2.9278,-2.9277,-2.9317,-2.9292,-2.9315,-2.9354,-2.9362,-2.9371,-2.945,-2.9429,-2.9457,-2.9502,-2.9529,-2.9539,-2.9547,-2.9573,-2.9583,-2.9463,-2.9463,-2.9463,0,-2.925,-2.929,-2.9275,-2.9307,-2.9318,-2.9288,-2.9327,-2.9334,-2.9351,-2.9359,-2.9339,-2.9386,-2.9391,-2.944,-2.9459,-2.9468,-2.9477,-2.9456,-2.9539,-2.9547,-2.9554,-2.9579,-2.9589,-2.9466,-2.9466,-2.9466,-2.9465,0,-2.9342,-2.937,-2.94,-2.9415,-2.943,-2.9465,-2.9454,-2.9471,-2.9458,-2.9454,-2.9493,-2.9498,-2.9518,-2.9529,-2.9517,-2.9576,-2.9564,-2.9542,-2.9505,-2.9568,-2.9592,-2.9601,-2.9471,-2.947,-2.9469,-2.9468,0,0,-2.9453,-2.9458,-2.9469,-2.9475,-2.9483,-2.9504,-2.9537,-2.9556,-2.957,-2.9582,-2.9608,-2.9642,-2.962,-2.9631,-2.9619,-2.9643,-2.9703,-2.9617,-2.9617,-2.9632,-2.9766,-2.9782,-2.9794,-2.969,-2.9691,-2.9693,-2.9765,0,-2.9529,-2.9586,-2.9572,-2.9628,-2.9652,-2.9623,-2.9652,-2.9659,-2.9656,-2.9676,-2.9672,-2.9695,-2.9666,-2.9672,-2.9694,-2.9691,-2.9729,-2.9686,-2.9713,-2.9714,-2.971,-2.9806,-2.9824,-2.9892,-2.9774,-2.9775,-2.9777,0,-2.9626,-2.9641,-2.9699,-2.9701,-2.9711,-2.9737,-2.9752,-2.9771,-2.9779,-2.9774,-2.9785,-2.9768,-2.9799,-2.9763,-2.9805,-2.9776,-2.9786,-2.9786,-2.9788,-2.9789,-2.9749,-2.9809,-2.9913,-2.9923,-2.9791,-2.979,-2.9789,0,-2.9699,-2.9734,-2.9772,-2.9778,-2.9782,-2.9801,-2.9803,-2.9808,-2.982,-2.9833,-2.984,-2.9858,-2.9867,-2.988,-2.9868,-2.9843,-2.9911,-2.9874,-2.9908,-2.9908,-2.9923,-2.9922,-3.0029,-2.9932,-2.9931,-2.9931,-2.9931,0,-2.9786,-2.9822,-2.9805,-2.9829,-2.9868,-2.9851,-2.989,-2.9889,-2.9893,-2.9915,-2.9892,-2.9913,-2.9896,-2.9916,-2.9906,-2.9942,-2.9947,-2.9943,-2.994,-2.9945,-2.9945,-2.9951,-2.9945,-2.9934,-2.9933,-2.9933,-2.9932,0,-2.9874,-2.9864,-2.9904,-2.9904,-2.9904,-2.9933,-2.9932,-2.9954,-2.9948,-2.9976,-2.9982,-2.9973,-2.9995,-2.9984,-3.0007,-3.0,-3.0045,-3.0036,-3.0043,-3.004,-3.0073,-3.007,-3.0187,-3.0201,-3.0095,-3.0097,-3.0097,0,-2.993,-2.9956,-2.9958,-2.9971,-2.9975,-2.9996,-3.0008,-2.9992,-3.0004,-3.0013,-3.0033,-3.0053,-3.0067,-3.0103,-3.0098,-3.0115,-3.0106,-3.0146,-3.0108,-3.0111,-3.0105,-3.0103,-3.0105,-3.0153,-3.0154,-3.0155,-3.0156,0,-3.0028,-3.0021,-3.0038,-3.0054,-3.0068,-3.0079,-3.0088,-3.01,-3.0084,-3.0099,-3.0121,-3.0132,-3.0154,-3.0173,-3.0187,-3.0189,-3.017,-3.0168,-3.0176,-3.0181,-3.0183,-3.018,-3.0062,-3.0165,-3.0164,-3.0164,-3.0163,-3.0163,-3.0101,-3.0122,-3.0126,-3.0146,-3.0151,-3.0159,-3.0179,-3.0175,-3.0192,-3.0209,-3.0198,-3.0223,-3.0228,-3.0244,-3.0249,-3.0267,-3.0251,-3.0264,-3.0267,-3.027,-3.0274,-3.018,-3.027,-3.027,-3.0269,-3.0269,-3.0269,0,-3.0196,-3.0197,-3.0215,-3.0228,-3.0243,-3.0223,-3.0231,-3.0245,-3.0267,-3.0273,-3.0287,-3.0311,-3.0329,-3.0325,-3.0341,-3.0357,-3.0348,-3.0361,-3.036,-3.036,-3.0288,-3.0278,-3.0368,-3.0368,-3.0368,-3.0368,-3.0368,-3.0368,-3.0248,-3.0283,-3.0276,-3.0313,-3.0313,-3.0337,-3.0343,-3.0351,-3.0355,-3.0382,-3.0397,-3.0394,-3.0396,-3.0411,-3.0426,-3.0425,-3.0431,-3.0448,-3.0443,-3.0375,-3.0365,-3.0356,-3.0347,-3.0449,-3.045,-3.0513,-3.0513,-3.0514]}]]